N0FDH Weather Reports


time (UTC)temp
C
wind
direction
speed
KPH
gust
KPH
rain 1hr
cm
rain 24hr
cm
rain mn
cm
humidity
%
barometer
mb
20260507151731 7 110 3.2 6.4 0.00 0.00 0.00 39 1011.8
20260507151228 8 325 4.8 12.9 0.00 0.00 0.00 39 1011.9
20260507150725 7 229 1.6 3.2 0.00 0.00 0.00 42 1011.9
20260507150222 6 277 1.6 4.8 0.00 0.00 0.00 42 1011.9
20260507145718 7 335 4.8 6.4 0.00 0.00 0.00 41 1012.0
20260507145215 7 285 11.3 14.5 0.00 0.00 0.00 42 1012.1
20260507144712 7 119 0.0 4.8 0.00 0.00 0.00 44 1012.1
20260507144210 7 259 4.8 9.7 0.00 0.00 0.00 44 1012.0
20260507143706 6 221 3.2 4.8 0.00 0.00 0.00 45 1012.1
20260507143203 6 231 0.0 6.4 0.00 0.00 0.00 46 1012.1
20260507142658 6 258 8.0 11.3 0.00 0.00 0.00 50 1012.1
20260507142155 6 302 4.8 11.3 0.00 0.00 0.00 48 1012.2
20260507141652 6 218 3.2 6.4 0.00 0.00 0.00 47 1012.2
20260507141149 6 245 6.4 12.9 0.00 0.00 0.00 48 1012.3
20260507140645 6 273 3.2 3.2 0.00 0.00 0.00 49 1012.3
20260507140143 6 255 8.0 11.3 0.00 0.00 0.00 51 1012.4
20260507135640 5 256 4.8 11.3 0.00 0.00 0.00 53 1012.5
20260507135137 5 264 6.4 11.3 0.00 0.00 0.00 51 1012.5
20260507134633 5 278 4.8 9.7 0.00 0.00 0.00 51 1012.5
20260507134129 5 329 4.8 9.7 0.00 0.00 0.00 55 1012.4
20260507133625 5 241 6.4 11.3 0.00 0.00 0.00 56 1012.5
20260507133123 5 262 6.4 11.3 0.00 0.00 0.00 58 1012.5
20260507132620 5 276 3.2 11.3 0.00 0.00 0.00 55 1012.6
20260507132116 5 247 8.0 9.7 0.00 0.00 0.00 58 1012.3
20260507131613 5 248 4.8 6.4 0.00 0.00 0.00 58 1012.5
20260507131111 4 287 3.2 6.4 0.00 0.00 0.00 60 1012.5
20260507130607 4 250 6.4 6.4 0.00 0.00 0.00 59 1012.6
20260507130105 3 293 4.8 6.4 0.00 0.00 0.00 62 1012.7
20260507125604 3 290 4.8 4.8 0.00 0.00 0.00 63 1012.6
20260507125101 3 233 4.8 4.8 0.00 0.00 0.00 65 1012.7
20260507124557 3 244 1.6 4.8 0.00 0.00 0.00 65 1012.7
20260507124055 3 299 3.2 4.8 0.00 0.00 0.00 67 1012.7
20260507123553 3 245 3.2 4.8 0.00 0.00 0.00 66 1012.8
20260507123049 3 269 3.2 4.8 0.00 0.00 0.00 65 1012.6
20260507122545 3 260 1.6 3.2 0.00 0.00 0.00 68 1012.7
20260507122041 3 223 0.0 3.2 0.00 0.00 0.00 67 1012.7
20260507121536 3 222 1.6 3.2 0.00 0.00 0.00 67 1012.6
20260507121033 2 248 1.6 3.2 0.00 0.00 0.00 68 1012.5
20260507120529 2 247 3.2 3.2 0.00 0.00 0.00 68 1012.8
20260507120026 2 268 1.6 3.2 0.00 0.00 0.00 68 1012.6
20260507115522 2 274 0.0 3.2 0.00 0.00 0.00 69 1012.5
20260507115018 2 209 1.6 3.2 0.00 0.00 0.00 69 1012.5
20260507114514 2 209 1.6 1.6 0.00 0.00 0.00 68 1012.5
20260507114011 2 233 0.0 1.6 0.00 0.00 0.00 71 1012.6
20260507113509 2 233 0.0 1.6 0.00 0.00 0.00 72 1012.5
20260507113006 2 233 0.0 0.0 0.00 0.00 0.00 72 1012.5
20260507112503 2 233 0.0 1.6 0.00 0.00 0.00 71 1012.3
20260507112000 2 233 1.6 3.2 0.00 0.00 0.00 69 1012.3
20260507111457 2 233 1.6 3.2 0.00 0.00 0.00 70 1012.3
20260507110953 2 282 3.2 4.8 0.00 0.00 0.00 69 1012.3
20260507110450 2 280 1.6 3.2 0.00 0.00 0.00 68 1012.3
20260507105946 2 235 3.2 3.2 0.00 0.00 0.00 69 1012.4
20260507105443 2 243 1.6 3.2 0.00 0.00 0.00 69 1012.4
20260507104940 2 283 0.0 3.2 0.00 0.00 0.00 68 1012.2
20260507104437 2 220 3.2 3.2 0.00 0.00 0.00 68 1012.3
20260507103932 2 260 3.2 3.2 0.00 0.00 0.00 69 1012.4
20260507103430 2 243 3.2 3.2 0.00 0.00 0.00 69 1012.3
20260507102925 2 219 1.6 1.6 0.00 0.00 0.00 69 1012.4
20260507102423 2 287 1.6 3.2 0.00 0.00 0.00 69 1012.3
20260507101919 2 292 1.6 3.2 0.00 0.00 0.00 70 1012.5
20260507101414 2 235 1.6 1.6 0.00 0.00 0.00 70 1012.3
20260507100911 2 235 1.6 1.6 0.00 0.00 0.00 70 1012.4
20260507100408 2 239 1.6 1.6 0.00 0.00 0.00 69 1012.6
20260507095907 2 285 0.0 0.0 0.00 0.00 0.00 71 1012.4
20260507095403 2 285 0.0 0.0 0.00 0.00 0.00 70 1012.4
20260507094900 2 285 0.0 1.6 0.00 0.00 0.00 71 1012.3
20260507094357 2 212 0.0 0.0 0.00 0.00 0.00 69 1012.4
20260507093854 2 253 1.6 1.6 0.00 0.00 0.00 69 1012.5
20260507093352 2 253 0.0 1.6 0.00 0.00 0.00 70 1012.4
20260507092850 2 253 1.6 1.6 0.00 0.00 0.00 69 1012.2
20260507092346 2 235 3.2 3.2 0.00 0.00 0.00 70 1012.4
20260507091842 2 228 1.6 3.2 0.00 0.00 0.00 72 1012.4
20260507091339 2 228 1.6 3.2 0.00 0.00 0.00 72 1012.4
20260507090834 2 228 0.0 0.0 0.00 0.00 0.00 70 1012.2
20260507090331 2 228 0.0 0.0 0.00 0.00 0.00 70 1012.4
20260507085828 1 228 0.0 0.0 0.00 0.00 0.00 73 1012.3
20260507085325 2 228 0.0 0.0 0.00 0.00 0.00 74 1012.2
20260507084822 2 228 0.0 0.0 0.00 0.00 0.00 72 1012.2
20260507084319 2 227 0.0 0.0 0.00 0.00 0.00 70 1012.2
20260507083816 2 228 0.0 0.0 0.00 0.00 0.00 71 1012.3
20260507083312 2 228 0.0 0.0 0.00 0.00 0.00 71 1012.3
20260507082808 2 228 0.0 0.0 0.00 0.00 0.00 70 1012.3
20260507082306 2 228 0.0 0.0 0.00 0.00 0.00 71 1012.1
20260507081802 2 228 0.0 0.0 0.00 0.00 0.00 72 1012.1
20260507081257 2 228 0.0 0.0 0.00 0.00 0.00 72 1012.4
20260507080754 2 228 0.0 0.0 0.00 0.00 0.00 72 1012.2
20260507080250 2 228 0.0 0.0 0.00 0.00 0.00 74 1012.1
20260507075746 2 228 0.0 0.0 0.00 0.00 0.00 75 1012.3
20260507075242 2 228 0.0 0.0 0.00 0.00 0.00 75 1012.3
20260507074738 2 228 0.0 0.0 0.00 0.00 0.00 75 1012.3
20260507074237 2 228 0.0 0.0 0.00 0.00 0.00 71 1012.4
20260507073733 2 228 0.0 0.0 0.00 0.00 0.00 72 1012.4
20260507073230 2 228 0.0 0.0 0.00 0.00 0.00 73 1012.5
20260507072728 2 228 0.0 0.0 0.00 0.00 0.00 71 1012.3
20260507072225 2 228 0.0 0.0 0.00 0.00 0.00 70 1012.5
20260507071722 2 228 0.0 0.0 0.00 0.00 0.00 71 1012.8
20260507071219 2 228 0.0 0.0 0.00 0.00 0.00 72 1012.8
20260507070716 2 228 0.0 0.0 0.00 0.00 0.00 71 1012.8
20260507070213 2 228 0.0 0.0 0.00 0.00 0.00 70 1012.9
20260507065709 2 228 0.0 0.0 0.00 0.00 0.00 70 1012.8
20260507065206 2 228 0.0 0.0 0.00 0.00 0.00 71 1012.9
20260507064703 2 228 0.0 0.0 0.00 0.00 0.00 71 1013.0
20260507064202 2 228 0.0 0.0 0.00 0.00 0.00 71 1013.1
20260507063659 2 228 0.0 0.0 0.00 0.00 0.00 72 1012.9
20260507063155 2 228 0.0 0.0 0.00 0.00 0.00 71 1012.9
20260507062652 2 228 0.0 0.0 0.00 0.00 0.00 69 1013.1
20260507062150 2 228 0.0 0.0 0.00 0.00 0.00 69 1013.2
20260507061648 2 228 0.0 0.0 0.00 0.00 0.00 69 1013.0
20260507061145 2 228 0.0 0.0 0.00 0.00 0.00 69 1013.1
20260507060643 2 228 0.0 0.0 0.00 0.00 0.00 69 1013.2
20260507060140 2 228 0.0 0.0 0.00 0.00 0.00 69 1013.2
20260507055635 2 228 0.0 0.0 0.00 0.00 0.00 68 1013.3
20260507055131 2 228 0.0 0.0 0.00 0.00 0.00 65 1013.2
20260507054627 2 228 0.0 0.0 0.00 0.00 0.00 66 1013.3
20260507054125 2 228 0.0 0.0 0.00 0.00 0.00 66 1013.3
20260507053622 2 228 0.0 0.0 0.00 0.00 0.00 66 1013.3
20260507053121 3 228 0.0 0.0 0.00 0.00 0.00 66 1013.3
20260507052618 2 228 0.0 0.0 0.00 0.00 0.00 65 1013.5
20260507052114 3 228 0.0 0.0 0.00 0.00 0.00 64 1013.3
20260507051612 3 228 0.0 0.0 0.00 0.00 0.00 64 1013.3
20260507051109 3 228 0.0 0.0 0.00 0.00 0.00 64 1013.6
20260507050605 3 228 0.0 0.0 0.00 0.00 0.00 64 1013.5
20260507045559 3 228 0.0 0.0 0.00 0.00 0.00 63 1013.6
20260507045056 3 228 0.0 0.0 0.00 0.00 0.00 63 1013.9
20260507044553 3 228 0.0 0.0 0.00 0.00 0.00 63 1013.6
20260507044050 3 228 0.0 0.0 0.00 0.00 0.00 63 1013.8
20260507043545 3 228 0.0 0.0 0.00 0.00 0.00 64 1013.7
20260507043043 3 228 0.0 0.0 0.00 0.00 0.00 64 1013.8
20260507042538 3 228 0.0 0.0 0.00 0.00 0.00 62 1013.7
20260507042034 3 228 0.0 0.0 0.00 0.00 0.00 61 1013.8
20260507041532 3 228 0.0 0.0 0.00 0.00 0.00 61 1013.9
20260507041028 3 228 0.0 0.0 0.00 0.00 0.00 61 1013.8
20260507040525 3 228 0.0 0.0 0.00 0.00 0.00 61 1013.9
20260507040020 3 228 0.0 0.0 0.00 0.00 0.00 60 1014.0
20260507035517 3 228 0.0 0.0 0.00 0.00 0.00 60 1014.0
20260507035014 3 228 0.0 0.0 0.00 0.00 0.00 63 1014.0
20260507034511 3 228 0.0 0.0 0.00 0.00 0.00 61 1014.1
20260507034009 3 228 0.0 0.0 0.00 0.00 0.00 60 1014.1
20260507033506 3 228 0.0 0.0 0.00 0.00 0.00 62 1014.2
20260507033003 3 228 0.0 0.0 0.00 0.00 0.00 63 1014.2
20260507032500 3 228 0.0 0.0 0.00 0.00 0.00 59 1014.3
20260507031956 3 228 0.0 0.0 0.00 0.00 0.00 59 1014.2
20260507031452 3 228 0.0 0.0 0.00 0.00 0.00 62 1014.4
20260507030950 3 228 0.0 0.0 0.00 0.00 0.00 61 1014.4
20260507030447 3 228 0.0 0.0 0.00 0.00 0.00 59 1014.1
20260507025944 3 228 0.0 0.0 0.00 0.00 0.00 61 1014.3
20260507025441 3 228 0.0 0.0 0.00 0.00 0.00 61 1014.2
20260507024939 3 228 0.0 0.0 0.00 0.00 0.00 60 1014.5
20260507024436 3 228 0.0 0.0 0.00 0.00 0.00 58 1014.3
20260507023931 4 228 0.0 0.0 0.00 0.00 0.00 57 1014.2
20260507023429 4 228 0.0 1.6 0.00 0.00 0.00 57 1014.4
20260507022926 4 228 0.0 1.6 0.00 0.00 0.00 56 1014.4
20260507022423 4 228 0.0 1.6 0.00 0.00 0.00 57 1014.4
20260507021918 4 228 0.0 1.6 0.00 0.00 0.00 56 1014.4
20260507021414 4 228 0.0 1.6 0.00 0.00 0.00 56 1014.4
20260507020912 4 228 1.6 3.2 0.00 0.00 0.00 57 1014.4
20260507020408 4 228 1.6 1.6 0.00 0.00 0.00 57 1014.2
20260507015905 4 236 1.6 1.6 0.00 0.00 0.00 56 1014.2
20260507015403 4 237 0.0 1.6 0.00 0.00 0.00 55 1014.2
20260507014900 4 293 1.6 1.6 0.00 0.00 0.00 57 1014.2
20260507014356 5 241 0.0 1.6 0.00 0.00 0.00 55 1014.2
20260507013853 5 306 3.2 3.2 0.00 0.00 0.00 55 1014.1
20260507013350 5 290 3.2 3.2 0.00 0.00 0.00 56 1014.2
20260507012847 5 291 1.6 3.2 0.00 0.00 0.00 55 1014.2
20260507012344 5 266 3.2 4.8 0.00 0.00 0.00 56 1014.0
20260507011841 5 241 3.2 3.2 0.00 0.00 0.00 57 1014.3
20260507011338 5 271 3.2 4.8 0.00 0.00 0.00 56 1014.2
20260507010837 5 237 6.4 6.4 0.00 0.00 0.00 55 1014.3
20260507010333 5 245 3.2 11.3 0.00 0.00 0.00 54 1014.3
20260507005831 5 234 3.2 9.7 0.00 0.00 0.00 54 1014.1
20260507005327 5 223 6.4 6.4 0.00 0.00 0.00 56 1014.5
20260507004824 5 290 4.8 6.4 0.00 0.00 0.00 56 1014.5
20260507004321 5 285 4.8 9.7 0.00 0.00 0.00 56 1014.4
20260507003818 5 293 3.2 4.8 0.00 0.00 0.00 55 1014.3
20260507003313 5 293 4.8 4.8 0.00 0.00 0.00 54 1014.3
20260507002809 5 245 6.4 6.4 0.00 0.00 0.00 57 1014.3
20260507002306 5 246 11.3 11.3 0.00 0.00 0.00 54 1014.5
20260507001803 5 286 6.4 12.9 0.00 0.00 0.00 55 1014.4
20260507001300 5 278 3.2 6.4 0.00 0.00 0.00 52 1014.3
20260507000756 5 290 6.4 12.9 0.00 0.00 0.00 53 1014.4
20260507000252 5 276 3.2 11.3 0.00 0.00 0.00 53 1014.3
20260506235749 5 249 4.8 9.7 0.00 0.00 0.00 54 1014.4
20260506235244 5 250 9.7 11.3 0.00 0.00 0.00 54 1014.5
20260506234741 5 262 3.2 11.3 0.00 0.00 0.00 53 1014.4
20260506234238 5 317 6.4 11.3 0.00 0.00 0.00 53 1014.4
20260506233736 5 318 4.8 9.7 0.00 0.00 0.00 53 1014.7
20260506233232 5 309 6.4 11.3 0.00 0.00 0.00 53 1014.6
20260506232729 5 279 6.4 9.7 0.00 0.00 0.00 54 1014.5
20260506232224 5 186 3.2 11.3 0.00 0.00 0.00 54 1014.5
20260506231721 5 291 4.8 6.4 0.00 0.00 0.00 53 1014.5
20260506231220 5 341 6.4 6.4 0.00 0.00 0.00 53 1014.6
20260506230716 5 261 8.0 9.7 0.00 0.00 0.00 54 1014.6
20260506230213 5 253 11.3 12.9 0.00 0.00 0.00 53 1014.7
20260506225709 5 276 4.8 9.7 0.00 0.00 0.00 51 1014.7
20260506225206 5 290 6.4 12.9 0.00 0.00 0.00 51 1014.6
20260506224703 5 326 6.4 6.4 0.00 0.00 0.00 53 1014.6
20260506224200 5 245 4.8 9.7 0.00 0.00 0.00 55 1014.7
20260506223656 5 286 4.8 11.3 0.00 0.00 0.00 52 1014.8
20260506223152 5 259 9.7 12.9 0.00 0.00 0.00 54 1014.6
20260506222649 5 286 9.7 16.1 0.00 0.00 0.00 54 1014.6
20260506222145 5 277 9.7 14.5 0.00 0.00 0.00 52 1014.8
20260506221643 5 249 4.8 6.4 0.00 0.00 0.00 55 1014.6
20260506221141 5 294 3.2 11.3 0.00 0.00 0.00 54 1014.6
20260506220638 5 259 9.7 11.3 0.00 0.00 0.00 54 1014.7
20260506220132 5 227 6.4 9.7 0.00 0.00 0.00 53 1014.8
20260506215630 5 255 8.0 14.5 0.00 0.00 0.00 55 1014.6
20260506215125 5 282 8.0 12.9 0.00 0.00 0.00 54 1014.6
20260506214622 5 222 4.8 11.3 0.00 0.00 0.00 52 1014.6
20260506214119 5 301 4.8 11.3 0.00 0.00 0.00 52 1014.5
20260506213618 5 293 6.4 9.7 0.00 0.00 0.00 54 1014.7
20260506213114 5 336 9.7 11.3 0.00 0.00 0.00 54 1014.6
20260506212611 5 254 11.3 16.1 0.00 0.00 0.00 54 1014.6
20260506212106 5 218 9.7 11.3 0.00 0.00 0.00 53 1014.5
20260506211602 5 295 8.0 11.3 0.00 0.00 0.00 54 1014.6
20260506211100 5 238 4.8 14.5 0.00 0.00 0.00 52 1014.7
20260506210556 5 330 8.0 9.7 0.00 0.00 0.00 55 1014.6
20260506210053 6 256 9.7 12.9 0.00 0.00 0.00 50 1014.6
20260506205549 5 326 6.4 11.3 0.00 0.00 0.00 53 1014.6
20260506205044 5 271 6.4 11.3 0.00 0.00 0.00 53 1014.6
20260506204543 5 257 4.8 9.7 0.00 0.00 0.00 53 1014.8
20260506204039 5 318 6.4 12.9 0.00 0.00 0.00 52 1014.9
20260506203538 5 329 6.4 11.3 0.00 0.00 0.00 55 1014.8
20260506203034 5 266 11.3 14.5 0.00 0.00 0.00 53 1014.7
20260506202532 5 327 8.0 16.1 0.00 0.00 0.00 51 1014.9
20260506202028 5 310 3.2 6.4 0.00 0.00 0.00 52 1015.0
20260506201526 5 290 4.8 11.3 0.00 0.00 0.00 51 1014.7
20260506201022 5 12 3.2 9.7 0.00 0.00 0.00 53 1014.7
20260506200518 5 303 4.8 9.7 0.00 0.00 0.00 52 1014.9
20260506200015 5 309 6.4 16.1 0.00 0.00 0.00 57 1014.9
20260506195512 5 354 6.4 12.9 0.00 0.00 0.00 52 1014.9
20260506195008 5 287 14.5 16.1 0.00 0.00 0.00 53 1015.0
20260506194506 5 231 11.3 12.9 0.00 0.00 0.00 54 1014.9
20260506194002 5 4 1.6 11.3 0.00 0.00 0.00 52 1015.0
20260506193500 5 238 6.4 11.3 0.00 0.00 0.00 54 1014.8
20260506192956 5 317 4.8 12.9 0.00 0.00 0.00 54 1015.1
20260506192453 5 325 4.8 11.3 0.00 0.00 0.00 55 1015.0
20260506191949 5 228 4.8 6.4 0.00 0.00 0.00 54 1015.2
20260506191446 4 257 4.8 9.7 0.00 0.00 0.00 59 1015.1
20260506190942 4 284 9.7 16.1 0.00 0.00 0.00 57 1015.1
20260506190440 3 304 3.2 11.3 0.00 0.00 0.00 54 1015.2
20260506185936 4 146 8.0 12.9 0.00 0.00 0.00 58 1015.1
20260506185434 4 299 9.7 12.9 0.00 0.00 0.00 58 1015.0
20260506184931 3 296 8.0 11.3 0.00 0.00 0.00 56 1015.1
20260506184427 3 292 6.4 12.9 0.00 0.00 0.00 57 1015.0
20260506183925 4 277 6.4 12.9 0.00 0.00 0.00 57 1015.2
20260506183420 3 301 6.4 6.4 0.00 0.00 0.00 59 1015.1
20260506182918 3 217 4.8 9.7 0.00 0.00 0.00 58 1015.1
20260506182415 3 328 9.7 12.9 0.00 0.00 0.00 59 1015.2
20260506181912 3 268 8.0 12.9 0.00 0.00 0.00 62 1015.2
20260506181410 3 272 4.8 11.3 0.00 0.00 0.00 58 1015.1
20260506180906 3 260 11.3 11.3 0.00 0.00 0.00 61 1015.2
20260506180403 3 265 8.0 12.9 0.00 0.00 0.00 61 1015.3
20260506175900 3 262 6.4 12.9 0.00 0.00 0.00 60 1015.2
20260506175356 3 253 4.8 9.7 0.00 0.00 0.00 60 1015.1
20260506174853 3 281 6.4 12.9 0.00 0.00 0.00 60 1015.2
20260506174351 3 246 8.0 11.3 0.00 0.00 0.00 60 1015.3
20260506173848 3 266 11.3 12.9 0.00 0.00 0.00 60 1015.2
20260506173344 3 283 6.4 6.4 0.00 0.00 0.00 59 1015.4
20260506172842 3 247 6.4 12.9 0.00 0.00 0.00 58 1015.5
20260506172338 3 318 6.4 12.9 0.00 0.00 0.00 55 1015.2
20260506171836 3 337 9.7 12.9 0.00 0.00 0.00 59 1015.2
20260506171333 3 323 6.4 11.3 0.00 0.00 0.00 56 1015.3
20260506170831 3 300 6.4 9.7 0.00 0.00 0.00 57 1015.4
20260506170326 3 310 4.8 6.4 0.00 0.00 0.00 56 1015.5
20260506165826 3 289 8.0 12.9 0.00 0.00 0.00 59 1015.3
20260506165323 3 344 3.2 9.7 0.00 0.00 0.00 55 1015.4
20260506164819 3 319 6.4 11.3 0.00 0.00 0.00 57 1015.4
20260506164316 3 238 8.0 12.9 0.00 0.00 0.00 56 1015.4
20260506163813 3 331 4.8 6.4 0.00 0.00 0.00 57 1015.4
20260506163307 3 328 4.8 11.3 0.00 0.00 0.00 58 1015.4
20260506162804 3 323 4.8 6.4 0.00 0.00 0.00 55 1015.4
20260506162306 3 331 12.9 14.5 0.00 0.00 0.00 58 1015.4
20260506161759 3 358 11.3 12.9 0.00 0.00 0.00 57 1015.4
20260506161256 3 249 4.8 14.5 0.00 0.00 0.00 56 1015.3
20260506160754 3 325 6.4 11.3 0.00 0.00 0.00 59 1015.4
20260506160250 3 291 8.0 14.5 0.00 0.00 0.00 57 1015.4
20260506155749 3 317 6.4 9.7 0.00 0.00 0.00 60 1015.5
20260506155245 3 280 9.7 16.1 0.00 0.00 0.00 57 1015.5
20260506153352 3 293 8.0 14.5 0.00 0.00 0.00 57 1015.5
20260506152849 3 313 6.4 12.9 0.00 0.00 0.00 58 1015.4
20260506152346 3 303 8.0 12.9 0.00 0.00 0.00 58 1015.4